Погода в Поронайске

Погода в Поронайске : погода сейчас, прогноз погоды и архив. Всё, что Вы хотите узнать о погоде в Поронайске!

Хотите узнать прогноз погоды в Поронайске? Тогда Вам сюда: Погода в Поронайске

Поиск расширенной информации на нашем сайте:

Другие новости

Новости СМИ2

Главная страница сайта

Новости сайта

03.07.2017

Напоминаем, что на нашем специализированном сайте Метеоцентр.Азия вы можете получить высокодетализированные автоматические прогнозы погоды по пунктам России, СНГ и мира в авиационном формате (включающие направление и скорость ветра, видимость, явления погоды, количество и форму облачности, нижнюю и верхнюю границу облачности).

Рекомендуем: Самая подробная информация услуги аренды персонала на сайте.

Погода в Поронайске - сегодня

Время (UTC), дата Ветер
(°,м/с) 
Видим.   Явления Облачность Т
(°С)
Тd
(°С)
f(%) Тe
(°С)
Pmin
(гПа)
dP
(гПа)
Po
(мм)
O2
(г/м3)
Тmin Tmax R s Состояние
почвы
09 15.06.18 180 (Ю) 4-7{08}  20000 м    8/4 420 м верхняя 
[St|Ci ing]
+6.2 +3.4 82 +5  1022.2  0.1  766  301    +8.3       
21 15.06.18 270 (З) 2-2{03}  20000 м    10/10 270 м 
[St]
+5.1 +2.9 86 +5  1020.4  -0.5  764  302  +3.9        влажная 
00 16.06.18 170 (Ю) 3-5{07}  20000 м    10/8 360 м верхняя 
[St|Ci ing]
+7.7 +4.3 79 +7  1019.1  -1.3  764  299           
09 16.06.18 190 (Ю) 7-10{11}  20000 м    10/9 300 м верхняя 
[St|Ci ing]
+6.2 +4.5 89 +4  1016.6  -0.5  762  299    +8.9       
21 16.06.18 200 (Ю) 3-6{07}  20000 м  {ливн. осадки}  10/10 270 м кучево-дожд. 
[Cb cap]
+6 +4.3 89 +5  1015.2  -0.3  761  299  +5.5    0.0    влажная 
00 17.06.18 190 (Ю) 5-7{07}  10 км  слаб. ливневой дождь  10/10 240 м кучево-дожд. 
[Cb cap]
+6.3 +5.2 93 +4  1015  -0.3  760  299           
09 17.06.18 200 (Ю) 7-10{11}  20000 м    10/10 210 м 
[St]
+7.4 +6.2 92 +5  1012.7  -0.6  759  297    +8.1  0.0     
12 17.06.18 190 (Ю) 7-8{11}  10 км  в посл. час ливневой дождь  10/10 240 м 
[St]
+7.1 +6.2 94 +5  1012.9  0.2  759  297           
21 17.06.18 190 (Ю) 7-9{09}  4000 м  дымка  10/10 210 м 
[St]
+8.5 +8 97 +6  1010.5  -0.3  757  294  +7      мокрая 
00 18.06.18 180 (Ю) 6-7{09}  4000 м  дымка  10/10 150 м 
[St]
+8.8 +8.2 96 +7  1010.4  0.1  757  294           
09 18.06.18 140 (ЮВ) 3-4{07}  20000 м    5/3 300 м кучево-дожд., средняя, верхняя 
[Cb cap|Ac trans|Ci fib]
+10.4 +8.8 90 +10  1009.3  0.3  756  292    +11       
12 18.06.18 120 (ЮВ) 2-3{05}  4000 м  дымка  10/10 210 м 
[St]
+9.8 +8.8 93 +10  1010.7  1.4  757  293           
18 18.06.18 360 (С) 1{03}  0200 м  туман  ?/?  
+8.6 +8.3 98 +10  1010.4  757  294           
21 18.06.18 180 (Ю) 2-3{03}  2000 м  в посл. час туман  10/10 150 м 
[St]
+9.8 +9.5 98 +10  1010  -0.3  757  293  +8.6        влажная 
00 19.06.18 170 (Ю) 3-4{05}  4000 м  дымка{туман}  10/10 120 м 
[St]
+9.9 +9.1 95 +9  1010.1  757  293           
09 19.06.18 170 (Ю) 4-6{08}  4000 м  дымка{ливн. осадки}  10/10 210 м 
[St]
+9.5 +8.6 94 +9  1008.8  0.3  756  293    +10.4     
12 19.06.18 180 (Ю) 3-5{06}  4000 м  дымка{ливн. осадки}  10/10 180 м 
[St]
+9 +8.1 94 +8  1009.4  0.5  756  294           
21 19.06.18 тихо () {02}  4000 м  дымка  10/10 150 м 
[St]
+10 +8.9 93 +10  1007.9  755  292  +8.8        мокрая 
00 20.06.18 140 (ЮВ) 3-5{05}  20000 м  слаб. ливневой дождь  10/5 600 м кучево-дожд., средняя, верхняя 
[Cb cap|Ac trans|Ci ing]
+11.4 +9.6 89 +12  1007.4  -0.4  755  290           
09 20.06.18 130 (ЮВ) 2-3{05}  10 км    10/10 300 м 
[St]
+9.2 +8 92 +9  1007.3  0.2  755  293    +12.8  0.6     
12 20.06.18 090 (В) 2-3{04}  4000 м  дымка  10/10 180 м 
[St]
+8.6 +7.8 95 +9  1007.1  -0.2  755  293           
21 20.06.18 150 (ЮВ) 3-6{06}  2000 м  слаб. ливневой дождь  10/10 180 м кучево-дожд. 
[Cb cap]
+8.9 +8.6 98 +8  1005.4  0.1  753  292  +8.1      мокрая 
00 21.06.18 140 (ЮВ) 4-8{08}  20000 м  слаб. ливневой дождь  10/10 360 м кучево-дожд. 
[Cb cap]
+8.7 +8.1 96 +8  1004.8  -0.6  753  293           
09 21.06.18 120 (ЮВ) 4-6{06}  4000 м  в посл. час ливневой дождь  10/10 360 м кучево-дожд. 
[Cb cap]
+8.1 +7.4 95 +7  1002.2  -1  751  293    +9.1     
12 21.06.18 120 (ЮВ) 2-4{06}  4000 м  слаб. ливневой дождь  10/10 300 м кучево-дожд. 
[Cb cap]
+7.5 +6.9 96 +7  1002.1  0.1  751  293           
Время (UTC), дата Ветер
(°,м/с) 
Видим.   Явления Облачность Т
(°С)
Тd
(°С)
f(%) Тe
(°С)
Pmin
(гПа)
dP
(гПа)
Po
(мм)
O2
(г/м3)
Тmin Tmax R s Состояние
почвы

Для получения пояснительной информации подведите курсор к названию столбца.

ПОГОДА в Поронайске - архив

Всё, что Вы хотите узнать о погоде в Поронайске - удобно и подробно!

Выберите нужную дату (начиная с 1 января 2015* года) и нажмите кнопку "Найти".
Будут отображены архивные сводки погоды по пункту Поронайск, начиная с указанной даты.


Отображать данные в формате CSV (для использования в таблицах Excel)


Внимание! Наш архив погоды предназначен исключительно для личного некоммерческого использования в познавательных целях. Если Вам необходимы официальные справки о состоянии погоды (для производственных, юридических, коммерческих и т.п. целей), обращайтесь в органы Росгидромета.

*Примечание: данная дата относится к архиву по метеостанциям СССР (Россия, СНГ, Балтия).
Архив по метеостанциям Зарубежной Европы и Азии (кроме Китая) хранится 10 дней, по другим регионам земного шара (Китай, Африка, Америка, Австралия, Океания) - 1 день.

Поронайск - район местоположения метеостанции


Название, широта, долгота, высота метеостанции:
Поронайск 49.2°ш. 143.1°д. 8 м над ур. моря [Российская Федерация]

Дополнительная информация

В oтличие oт бoльшинства пoгoдных сайтoв мы публикуем пoдрoбную метеoинфoрмацию в детальнoм прoфессиoнальнoм фoрмате.

Характеристики температуры и влажнoсти вoздуха измеряются на высoте 2 м в тени вдали oт зданий и деревьев.
Скoрoсть ветра измеряется на высoте 10 м (на урoвне рoста челoвека скoрoсть ветра ниже в 1.5-2 раза). Если метеoстанция нахoдится в гoрoде или в лесу, тo скoрoсть ветра занижена на 2-4 м/с пo сравнению с oткрытым местoм. Скoрoсть ветра над акватoриями крупных рек и oзёр, а также на вершинах хoлмoв на 2-5 м/с выше, чем в oбычных услoвиях.
Атмoсфернoе давление в разных тoчках местнoсти мoжет значительнo oтличаться oт давления на метеoстанции, в зависимoсти oт услoвий рельефа (при пoдъёме на 10 м давление пoнижается примернo на 1 мм рт.ст.).